Time,TemperatureF,DewpointF,PressureIn,WindDirection,WindDirectionDegrees,WindSpeedMPH,WindSpeedGustMPH,Humidity,HourlyPrecipIn,Conditions,Clouds,dailyrainin,SoftwareType,DateUTC
2013-08-30 00:00:00,64.9,60.9,29.93,East,97,2.0,2.0,87,0.00,,,0.00,Wunderground v.1.15,2013-08-30 04:00:00,
2013-08-30 00:05:00,64.9,60.9,29.93,SE,129,2.0,2.0,87,0.00,,,0.00,Wunderground v.1.15,2013-08-30 04:05:00,
2013-08-30 00:10:00,64.9,60.9,29.93,SSE,147,1.0,1.0,87,0.00,,,0.00,Wunderground v.1.15,2013-08-30 04:10:00,
2013-08-30 00:15:00,64.9,60.9,29.94,SSE,156,1.0,3.0,87,0.00,,,0.00,Wunderground v.1.15,2013-08-30 04:15:00,
2013-08-30 00:20:00,64.8,60.8,29.94,ESE,109,2.0,2.0,87,0.00,,,0.00,Wunderground v.1.15,2013-08-30 04:20:00,
2013-08-30 00:30:00,64.8,60.8,29.93,ESE,113,1.0,2.0,87,0.00,,,0.00,Wunderground v.1.15,2013-08-30 04:30:00,
2013-08-30 00:35:00,64.8,60.8,29.93,South,174,1.0,2.0,87,0.00,,,0.00,Wunderground v.1.15,2013-08-30 04:35:00,
2013-08-30 00:40:00,65.0,61.0,29.93,SSE,154,1.0,1.0,87,0.00,,,0.00,Wunderground v.1.15,2013-08-30 04:40:00,
2013-08-30 00:50:00,65.2,60.9,29.93,SSE,157,1.0,2.0,86,0.00,,,0.00,Wunderground v.1.15,2013-08-30 04:50:00,
2013-08-30 01:00:00,65.0,60.7,29.94,SSE,154,2.0,2.0,86,0.00,,,0.00,Wunderground v.1.15,2013-08-30 05:00:00,
2013-08-30 01:10:00,64.9,60.6,29.94,SSE,164,1.0,1.0,86,0.00,,,0.00,Wunderground v.1.15,2013-08-30 05:10:00,
2013-08-30 01:20:00,64.8,60.5,29.94,SE,136,1.0,1.0,86,0.00,,,0.00,Wunderground v.1.15,2013-08-30 05:20:00,
2013-08-30 01:30:00,64.6,60.3,29.94,SE,136,1.0,1.0,86,0.00,,,0.00,Wunderground v.1.15,2013-08-30 05:30:00,
2013-08-30 01:40:00,64.6,60.3,29.94,SE,127,1.0,1.0,86,0.00,,,0.00,Wunderground v.1.15,2013-08-30 05:40:00,
2013-08-30 01:50:00,64.5,60.2,29.94,SE,131,1.0,1.0,86,0.00,,,0.00,Wunderground v.1.15,2013-08-30 05:50:00,
2013-08-30 02:00:00,64.5,60.5,29.93,SSE,150,1.0,1.0,87,0.00,,,0.00,Wunderground v.1.15,2013-08-30 06:00:00,
2013-08-30 02:10:00,64.4,60.4,29.93,SSE,156,1.0,1.0,87,0.00,,,0.00,Wunderground v.1.15,2013-08-30 06:10:00,
2013-08-30 02:20:00,64.4,60.4,29.92,ESE,120,1.0,1.0,87,0.00,,,0.00,Wunderground v.1.15,2013-08-30 06:20:00,
2013-08-30 02:30:00,64.4,60.4,29.92,SE,141,1.0,1.0,87,0.00,,,0.00,Wunderground v.1.15,2013-08-30 06:30:00,
2013-08-30 02:40:00,64.4,60.4,29.92,SE,136,1.0,2.0,87,0.00,,,0.00,Wunderground v.1.15,2013-08-30 06:40:00,
2013-08-30 02:45:00,64.5,60.5,29.92,SE,136,1.0,2.0,87,0.00,,,0.00,Wunderground v.1.15,2013-08-30 06:45:00,
2013-08-30 02:50:00,64.6,60.3,29.92,SE,140,1.0,2.0,86,0.00,,,0.00,Wunderground v.1.15,2013-08-30 06:50:00,
2013-08-30 03:00:00,64.5,60.2,29.91,South,174,2.0,2.0,86,0.00,,,0.00,Wunderground v.1.15,2013-08-30 07:00:00,
2013-08-30 03:10:00,64.3,60.3,29.91,SSE,155,1.0,1.0,87,0.00,,,0.00,Wunderground v.1.15,2013-08-30 07:10:00,
2013-08-30 03:20:00,64.1,60.2,29.91,SE,134,1.0,1.0,87,0.00,,,0.00,Wunderground v.1.15,2013-08-30 07:20:00,
2013-08-30 03:30:00,64.0,60.1,29.91,SE,141,1.0,2.0,87,0.00,,,0.00,Wunderground v.1.15,2013-08-30 07:30:00,
2013-08-30 03:40:00,63.7,59.8,29.91,SSE,156,2.0,2.0,87,0.00,,,0.00,Wunderground v.1.15,2013-08-30 07:40:00,
2013-08-30 03:50:00,63.5,59.6,29.91,SSE,150,1.0,1.0,87,0.00,,,0.00,Wunderground v.1.15,2013-08-30 07:50:00,
2013-08-30 04:00:00,63.5,59.9,29.91,SSE,156,1.0,1.0,88,0.00,,,0.00,Wunderground v.1.15,2013-08-30 08:00:00,
2013-08-30 04:10:00,63.4,59.8,29.91,SSE,168,2.0,2.0,88,0.00,,,0.00,Wunderground v.1.15,2013-08-30 08:10:00,
2013-08-30 04:20:00,63.2,59.9,29.90,SSE,167,2.0,2.0,89,0.00,,,0.00,Wunderground v.1.15,2013-08-30 08:20:00,
2013-08-30 04:30:00,63.3,60.3,29.90,South,181,2.0,2.0,90,0.00,,,0.00,Wunderground v.1.15,2013-08-30 08:30:00,
2013-08-30 04:40:00,63.5,60.2,29.90,SSE,165,2.0,2.0,89,0.00,,,0.00,Wunderground v.1.15,2013-08-30 08:40:00,
2013-08-30 04:50:00,63.4,60.1,29.90,South,174,2.0,2.0,89,0.00,,,0.00,Wunderground v.1.15,2013-08-30 08:50:00,
2013-08-30 05:00:00,63.1,59.8,29.90,SSE,154,2.0,2.0,89,0.00,,,0.00,Wunderground v.1.15,2013-08-30 09:00:00,
2013-08-30 05:10:00,62.9,59.9,29.90,South,174,2.0,2.0,90,0.00,,,0.00,Wunderground v.1.15,2013-08-30 09:10:00,
2013-08-30 05:20:00,62.8,59.8,29.90,SSE,161,2.0,3.0,90,0.00,,,0.00,Wunderground v.1.15,2013-08-30 09:20:00,
2013-08-30 05:30:00,62.8,60.1,29.90,SSE,159,2.0,2.0,91,0.00,,,0.00,Wunderground v.1.15,2013-08-30 09:30:00,
2013-08-30 05:40:00,62.8,60.1,29.90,SSE,152,3.0,3.0,91,0.00,,,0.00,Wunderground v.1.15,2013-08-30 09:40:00,
2013-08-30 05:50:00,62.7,60.0,29.91,SSE,154,3.0,3.0,91,0.00,,,0.00,Wunderground v.1.15,2013-08-30 09:50:00,
2013-08-30 06:00:00,62.7,60.0,29.91,SSE,150,3.0,3.0,91,0.00,,,0.00,Wunderground v.1.15,2013-08-30 10:00:00,
2013-08-30 06:10:00,62.7,60.0,29.91,SSE,164,3.0,5.0,91,0.00,,,0.00,Wunderground v.1.15,2013-08-30 10:10:00,
2013-08-30 06:20:00,62.8,60.1,29.91,SE,145,4.0,4.0,91,0.00,,,0.00,Wunderground v.1.15,2013-08-30 10:20:00,
2013-08-30 06:30:00,62.9,60.2,29.91,South,178,4.0,4.0,91,0.00,,,0.00,Wunderground v.1.15,2013-08-30 10:30:00,
2013-08-30 06:40:00,63.0,60.3,29.91,South,178,4.0,6.0,91,0.00,,,0.00,Wunderground v.1.15,2013-08-30 10:40:00,
2013-08-30 06:50:00,63.0,60.3,29.91,South,176,4.0,4.0,91,0.00,,,0.00,Wunderground v.1.15,2013-08-30 10:50:00,
2013-08-30 07:00:00,63.1,60.1,29.92,South,176,4.0,4.0,90,0.00,,,0.00,Wunderground v.1.15,2013-08-30 11:00:00,
2013-08-30 07:10:00,63.2,60.2,29.92,South,170,3.0,3.0,90,0.00,,,0.00,Wunderground v.1.15,2013-08-30 11:10:00,
2013-08-30 07:20:00,63.4,60.7,29.92,South,169,3.0,3.0,91,0.00,,,0.00,Wunderground v.1.15,2013-08-30 11:20:00,
2013-08-30 07:30:00,63.6,60.6,29.92,SSW,193,3.0,3.0,90,0.00,,,0.00,Wunderground v.1.15,2013-08-30 11:30:00,
2013-08-30 07:40:00,63.8,60.8,29.92,SSE,154,3.0,3.0,90,0.00,,,0.00,Wunderground v.1.15,2013-08-30 11:40:00,
2013-08-30 07:55:00,64.0,61.0,29.92,South,177,3.0,4.0,90,0.00,,,0.00,Wunderground v.1.15,2013-08-30 11:55:00,
2013-08-30 08:00:00,64.1,61.1,29.92,SSW,206,3.0,3.0,90,0.00,,,0.00,Wunderground v.1.15,2013-08-30 12:00:00,
2013-08-30 08:10:00,64.3,61.3,29.92,South,172,3.0,4.0,90,0.00,,,0.00,Wunderground v.1.15,2013-08-30 12:10:00,
2013-08-30 08:20:00,64.6,61.6,29.92,South,170,4.0,4.0,90,0.00,,,0.00,Wunderground v.1.15,2013-08-30 12:20:00,
2013-08-30 08:30:00,64.9,61.9,29.92,South,179,3.0,9.0,90,0.00,,,0.00,Wunderground v.1.15,2013-08-30 12:30:00,
2013-08-30 08:40:00,65.1,62.1,29.91,SSW,195,4.0,4.0,90,0.00,,,0.00,Wunderground v.1.15,2013-08-30 12:40:00,
2013-08-30 08:50:00,65.4,62.4,29.91,South,185,4.0,5.0,90,0.00,,,0.00,Wunderground v.1.15,2013-08-30 12:50:00,
2013-08-30 09:00:00,65.8,62.8,29.91,SW,216,4.0,6.0,90,0.00,,,0.00,Wunderground v.1.15,2013-08-30 13:00:00,
2013-08-30 09:10:00,66.1,63.1,29.91,ENE,69,5.0,5.0,90,0.00,,,0.00,Wunderground v.1.15,2013-08-30 13:10:00,
2013-08-30 09:20:00,66.3,63.0,29.91,SSE,158,4.0,5.0,89,0.00,,,0.00,Wunderground v.1.15,2013-08-30 13:20:00,
2013-08-30 09:30:00,66.6,63.3,29.91,SSE,147,5.0,8.0,89,0.00,,,0.00,Wunderground v.1.15,2013-08-30 13:30:00,
2013-08-30 09:40:00,67.0,64.0,29.90,South,190,6.0,10.0,90,0.00,,,0.00,Wunderground v.1.15,2013-08-30 13:40:00,
2013-08-30 09:50:00,67.5,64.1,29.90,SSW,197,7.0,7.0,89,0.00,,,0.00,Wunderground v.1.15,2013-08-30 13:50:00,
2013-08-30 10:00:00,68.0,64.6,29.90,SSW,193,6.0,6.0,89,0.00,,,0.00,Wunderground v.1.15,2013-08-30 14:00:00,
2013-08-30 10:10:00,68.8,65.1,29.90,South,174,7.0,7.0,88,0.00,,,0.00,Wunderground v.1.15,2013-08-30 14:10:00,
2013-08-30 10:20:00,69.7,66.0,29.90,SSW,200,5.0,5.0,88,0.00,,,0.00,Wunderground v.1.15,2013-08-30 14:20:00,
2013-08-30 10:30:00,70.4,66.0,29.90,South,181,5.0,5.0,86,0.00,,,0.00,Wunderground v.1.15,2013-08-30 14:30:00,
2013-08-30 10:40:00,71.0,66.3,29.90,SSW,193,5.0,5.0,85,0.00,,,0.00,Wunderground v.1.15,2013-08-30 14:40:00,
2013-08-30 10:50:00,71.6,66.5,29.90,WSW,255,4.0,8.0,84,0.00,,,0.00,Wunderground v.1.15,2013-08-30 14:50:00,
2013-08-30 11:00:00,72.0,66.6,29.90,ENE,64,4.0,4.0,83,0.00,,,0.00,Wunderground v.1.15,2013-08-30 15:00:00,
2013-08-30 11:10:00,72.4,67.3,29.90,SSW,206,3.0,3.0,84,0.00,,,0.00,Wunderground v.1.15,2013-08-30 15:10:00,
2013-08-30 11:20:00,73.0,67.9,29.89,NW,310,2.0,3.0,84,0.00,,,0.00,Wunderground v.1.15,2013-08-30 15:20:00,
2013-08-30 11:30:00,73.3,67.8,29.89,South,181,3.0,3.0,83,0.00,,,0.00,Wunderground v.1.15,2013-08-30 15:30:00,
2013-08-30 11:45:00,73.4,67.2,29.88,SW,223,4.0,4.0,81,0.00,,,0.00,Wunderground v.1.15,2013-08-30 15:45:00,
2013-08-30 11:50:00,73.6,67.8,29.88,South,171,3.0,3.0,82,0.00,,,0.00,Wunderground v.1.15,2013-08-30 15:50:00,
2013-08-30 12:00:00,73.9,68.1,29.88,WNW,300,2.0,3.0,82,0.00,,,0.00,Wunderground v.1.15,2013-08-30 16:00:00,
2013-08-30 12:10:00,74.1,68.3,29.88,WNW,287,3.0,3.0,82,0.00,,,0.00,Wunderground v.1.15,2013-08-30 16:10:00,
2013-08-30 12:20:00,74.3,68.4,29.88,NW,308,2.0,2.0,82,0.00,,,0.00,Wunderground v.1.15,2013-08-30 16:20:00,
2013-08-30 12:30:00,74.3,68.4,29.86,NNW,347,2.0,2.0,82,0.00,,,0.00,Wunderground v.1.15,2013-08-30 16:30:00,
2013-08-30 12:40:00,73.9,68.4,29.86,NNW,327,2.0,2.0,83,0.00,,,0.00,Wunderground v.1.15,2013-08-30 16:40:00,
2013-08-30 12:50:00,74.0,68.9,29.86,WNW,302,3.0,3.0,84,0.00,,,0.00,Wunderground v.1.15,2013-08-30 16:50:00,
2013-08-30 13:00:00,74.7,69.2,29.85,WNW,301,2.0,4.0,83,0.00,,,0.00,Wunderground v.1.15,2013-08-30 17:00:00,
2013-08-30 13:10:00,74.3,68.4,29.85,WNW,289,2.0,2.0,82,0.00,,,0.00,Wunderground v.1.15,2013-08-30 17:10:00,
2013-08-30 13:20:00,74.2,69.1,29.85,North,359,2.0,3.0,84,0.00,,,0.00,Wunderground v.1.15,2013-08-30 17:20:00,
2013-08-30 13:30:00,74.6,69.4,29.85,NNW,332,3.0,3.0,84,0.00,,,0.00,Wunderground v.1.15,2013-08-30 17:30:00,
2013-08-30 13:40:00,75.1,69.6,29.85,NNW,329,4.0,4.0,83,0.00,,,0.00,Wunderground v.1.15,2013-08-30 17:40:00,
2013-08-30 13:50:00,75.3,69.4,29.85,NW,325,3.0,3.0,82,0.00,,,0.00,Wunderground v.1.15,2013-08-30 17:50:00,
2013-08-30 14:00:00,75.6,69.7,29.84,NNW,332,3.0,3.0,82,0.00,,,0.00,Wunderground v.1.15,2013-08-30 18:00:00,
2013-08-30 14:10:00,76.1,70.2,29.84,North,1,3.0,3.0,82,0.00,,,0.00,Wunderground v.1.15,2013-08-30 18:10:00,
2013-08-30 14:20:00,76.3,69.7,29.84,WSW,250,2.0,4.0,80,0.00,,,0.00,Wunderground v.1.15,2013-08-30 18:20:00,
2013-08-30 14:30:00,76.8,69.8,29.83,SSW,196,2.0,2.0,79,0.00,,,0.00,Wunderground v.1.15,2013-08-30 18:30:00,
2013-08-30 14:40:00,78.4,71.0,29.83,SSE,160,3.0,3.0,78,0.00,,,0.00,Wunderground v.1.15,2013-08-30 18:40:00,
2013-08-30 14:50:00,78.5,70.3,29.83,SSW,210,3.0,3.0,76,0.00,,,0.00,Wunderground v.1.15,2013-08-30 18:50:00,
2013-08-30 15:00:00,77.9,70.1,29.82,NE,36,3.0,3.0,77,0.00,,,0.00,Wunderground v.1.15,2013-08-30 19:00:00,
2013-08-30 15:10:00,77.1,70.5,29.82,South,183,2.0,4.0,80,0.00,,,0.00,Wunderground v.1.15,2013-08-30 19:10:00,
2013-08-30 15:20:00,76.5,69.9,29.82,South,173,2.0,5.0,80,0.00,,,0.00,Wunderground v.1.15,2013-08-30 19:20:00,
2013-08-30 15:30:00,76.8,70.5,29.82,SSW,193,4.0,5.0,81,0.00,,,0.00,Wunderground v.1.15,2013-08-30 19:30:00,
2013-08-30 15:40:00,77.1,70.1,29.81,SSE,168,5.0,5.0,79,0.00,,,0.00,Wunderground v.1.15,2013-08-30 19:40:00,
2013-08-30 15:50:00,78.0,71.0,29.81,WSW,255,6.0,7.0,79,0.00,,,0.00,Wunderground v.1.15,2013-08-30 19:50:00,
2013-08-30 16:00:00,79.1,70.9,29.81,South,189,7.0,7.0,76,0.00,,,0.00,Wunderground v.1.15,2013-08-30 20:00:00,
2013-08-30 16:10:00,78.8,70.6,29.81,South,191,7.0,10.0,76,0.00,,,0.00,Wunderground v.1.15,2013-08-30 20:10:00,
2013-08-30 16:20:00,78.3,70.9,29.81,SSW,195,7.0,7.0,78,0.00,,,0.00,Wunderground v.1.15,2013-08-30 20:20:00,
2013-08-30 16:30:00,78.1,70.3,29.80,SSW,208,8.0,8.0,77,0.00,,,0.00,Wunderground v.1.15,2013-08-30 20:30:00,
2013-08-30 16:40:00,77.8,70.0,29.80,South,187,9.0,9.0,77,0.00,,,0.00,Wunderground v.1.15,2013-08-30 20:40:00,
2013-08-30 16:50:00,77.8,70.4,29.80,SSE,168,6.0,6.0,78,0.00,,,0.00,Wunderground v.1.15,2013-08-30 20:50:00,
2013-08-30 17:00:00,78.1,70.3,29.80,SSW,193,9.0,11.0,77,0.00,,,0.00,Wunderground v.1.15,2013-08-30 21:00:00,
2013-08-30 17:10:00,78.0,70.2,29.80,SSW,193,6.0,6.0,77,0.00,,,0.00,Wunderground v.1.15,2013-08-30 21:10:00,
2013-08-30 17:20:00,77.7,70.3,29.80,SSW,193,6.0,6.0,78,0.00,,,0.00,Wunderground v.1.15,2013-08-30 21:20:00,
2013-08-30 17:30:00,77.3,69.9,29.80,South,189,8.0,14.0,78,0.00,,,0.00,Wunderground v.1.15,2013-08-30 21:30:00,
2013-08-30 17:40:00,76.7,69.7,29.80,South,173,7.0,7.0,79,0.00,,,0.00,Wunderground v.1.15,2013-08-30 21:40:00,
2013-08-30 17:50:00,76.1,69.8,29.80,South,191,7.0,7.0,81,0.00,,,0.00,Wunderground v.1.15,2013-08-30 21:50:00,
2013-08-30 18:00:00,75.9,69.6,29.80,SSE,162,5.0,7.0,81,0.00,,,0.00,Wunderground v.1.15,2013-08-30 22:00:00,
2013-08-30 18:10:00,75.3,69.4,29.79,SSW,196,6.0,6.0,82,0.00,,,0.00,Wunderground v.1.15,2013-08-30 22:10:00,
2013-08-30 18:20:00,74.6,69.1,29.79,South,190,6.0,6.0,83,0.00,,,0.00,Wunderground v.1.15,2013-08-30 22:20:00,
2013-08-30 18:30:00,73.9,69.1,29.79,SSE,155,6.0,6.0,85,0.00,,,0.00,Wunderground v.1.15,2013-08-30 22:30:00,
2013-08-30 18:40:00,73.4,68.6,29.79,SSE,165,6.0,6.0,85,0.00,,,0.00,Wunderground v.1.15,2013-08-30 22:40:00,
2013-08-30 18:50:00,73.0,68.6,29.79,South,184,6.0,10.0,86,0.00,,,0.00,Wunderground v.1.15,2013-08-30 22:50:00,
2013-08-30 19:00:00,72.8,68.7,29.79,South,181,6.0,11.0,87,0.00,,,0.00,Wunderground v.1.15,2013-08-30 23:00:00,
2013-08-30 19:10:00,72.9,68.5,29.79,ESE,120,7.0,7.0,86,0.00,,,0.00,Wunderground v.1.15,2013-08-30 23:10:00,
2013-08-30 19:20:00,72.8,68.4,29.79,SSE,148,5.0,5.0,86,0.00,,,0.00,Wunderground v.1.15,2013-08-30 23:20:00,
2013-08-30 19:30:00,72.2,68.1,29.78,SSE,149,6.0,6.0,87,0.00,,,0.00,Wunderground v.1.15,2013-08-30 23:30:00,
2013-08-30 19:40:00,71.6,68.2,29.78,SE,146,7.0,7.0,89,0.00,,,0.00,Wunderground v.1.15,2013-08-30 23:40:00,
2013-08-30 19:50:00,71.3,68.2,29.78,South,180,7.0,8.0,90,0.00,,,0.00,Wunderground v.1.15,2013-08-30 23:50:00,
2013-08-30 20:00:00,71.0,67.9,29.78,SSE,149,6.0,6.0,90,0.00,,,0.00,Wunderground v.1.15,2013-08-31 00:00:00,
2013-08-30 20:10:00,70.8,68.0,29.78,SW,218,6.0,6.0,91,0.00,,,0.00,Wunderground v.1.15,2013-08-31 00:10:00,
2013-08-30 20:20:00,71.0,68.2,29.78,South,174,7.0,8.0,91,0.00,,,0.00,Wunderground v.1.15,2013-08-31 00:20:00,
2013-08-30 20:30:00,71.1,68.0,29.78,SSW,194,7.0,8.0,90,0.00,,,0.00,Wunderground v.1.15,2013-08-31 00:30:00,
2013-08-30 20:40:00,70.7,67.9,29.78,South,173,6.0,8.0,91,0.00,,,0.00,Wunderground v.1.15,2013-08-31 00:40:00,
2013-08-30 20:50:00,70.4,68.0,29.78,South,174,7.0,9.0,92,0.00,,,0.00,Wunderground v.1.15,2013-08-31 00:50:00,
2013-08-30 21:00:00,70.2,67.8,29.77,SSE,160,7.0,9.0,92,0.00,,,0.00,Wunderground v.1.15,2013-08-31 01:00:00,
2013-08-30 21:10:00,70.1,67.7,29.77,SSW,201,7.0,7.0,92,0.00,,,0.00,Wunderground v.1.15,2013-08-31 01:10:00,
2013-08-30 21:20:00,69.9,67.8,29.78,South,177,6.0,7.0,93,0.00,,,0.00,Wunderground v.1.15,2013-08-31 01:20:00,
2013-08-30 21:30:00,70.1,68.0,29.78,South,182,6.0,6.0,93,0.00,,,0.00,Wunderground v.1.15,2013-08-31 01:30:00,
2013-08-30 21:40:00,70.3,68.2,29.78,SSE,156,5.0,5.0,93,0.00,,,0.00,Wunderground v.1.15,2013-08-31 01:40:00,
2013-08-30 21:50:00,70.3,67.9,29.78,SSW,193,5.0,5.0,92,0.00,,,0.00,Wunderground v.1.15,2013-08-31 01:50:00,
2013-08-30 22:00:00,70.1,68.0,29.78,SSE,166,5.0,5.0,93,0.00,,,0.00,Wunderground v.1.15,2013-08-31 02:00:00,
2013-08-30 22:10:00,69.9,67.8,29.78,SE,143,6.0,6.0,93,0.00,,,0.00,Wunderground v.1.15,2013-08-31 02:10:00,
2013-08-30 22:20:00,69.9,67.8,29.78,SSE,154,5.0,5.0,93,0.00,,,0.00,Wunderground v.1.15,2013-08-31 02:20:00,
2013-08-30 22:30:00,70.0,67.9,29.78,SW,216,5.0,7.0,93,0.00,,,0.00,Wunderground v.1.15,2013-08-31 02:30:00,
2013-08-30 22:40:00,69.9,68.1,29.78,South,185,5.0,6.0,94,0.00,,,0.00,Wunderground v.1.15,2013-08-31 02:40:00,
2013-08-30 22:50:00,70.1,68.3,29.78,South,191,5.0,5.0,94,0.00,,,0.00,Wunderground v.1.15,2013-08-31 02:50:00,
2013-08-30 23:00:00,70.3,68.5,29.78,South,170,6.0,9.0,94,0.00,,,0.00,Wunderground v.1.15,2013-08-31 03:00:00,
2013-08-30 23:10:00,70.5,68.7,29.78,SSW,198,5.0,6.0,94,0.00,,,0.00,Wunderground v.1.15,2013-08-31 03:10:00,
2013-08-30 23:20:00,70.5,68.7,29.78,SSE,158,6.0,6.0,94,0.00,,,0.00,Wunderground v.1.15,2013-08-31 03:20:00,
2013-08-30 23:30:00,70.4,68.6,29.78,South,171,6.0,7.0,94,0.00,,,0.00,Wunderground v.1.15,2013-08-31 03:30:00,
2013-08-30 23:40:00,70.3,68.5,29.78,SSW,199,6.0,6.0,94,0.00,,,0.00,Wunderground v.1.15,2013-08-31 03:40:00,
2013-08-30 23:50:00,70.3,68.5,29.78,SE,132,5.0,5.0,94,0.00,,,0.00,Wunderground v.1.15,2013-08-31 03:50:00,